Location: Unspecified
(0.0000°N, 0.0000°E)
Time: 11:32:21
(UTC+00:00)

ISS - Pass Details

Date: 14 June 2021
Orbit: 417 x 422 km, 51.6° (Epoch: 18 June)

Event Time Altitude Azimuth Distance (km) Brightness Sun altitude
Rises 19:03:05 0° 288° (WNW) 2,350 2.0 -14.4°
Reaches altitude 10° 19:06:43 10° 246° (WSW) 1,493 -0.4 -15.2°
Maximum altitude 19:07:27 11° 234° (SW) 1,461 -0.6 -15.4°
Drops below altitude 10° 19:08:11 10° 221° (SW) 1,495 -0.8 -15.5°
Enters shadow 19:10:46 - 188° (S) 2,022 -0.5 -16.1°
